RAM1415 GMFO-GMMX

Flight info

Callsign RAM1415
Flight time 1h 14m
Altitude 38000
Route ROMOR UA411 SOVAL/N0457F400 UA411 FES UR975 DONAS/N0454F390 UR975 BISMI UB11 MABAP
Aircraft B38M/M-SDE1FGHILORVWXY/HB1

Departure

Time 2026-05-07 01:21
Airport Oujda Angads Airport (GMFO)

Arrival

Time 2026-05-07 02:36
Airport Marrakesh Menara Airport (GMMX)
Time Latitude Longitude Altitude Speed Heading
2026-05-07 00:40 34.78649 -1.93874 1527 ft 0 kts 345°
2026-05-07 01:11 34.78640 -1.93871 1520 ft 3 kts
2026-05-07 01:11 34.78624 -1.93879 1527 ft 2 kts 57°
2026-05-07 01:12 34.78623 -1.93881 1527 ft 0 kts 57°
2026-05-07 01:17 34.78626 -1.93874 1527 ft 2 kts 68°
2026-05-07 01:17 34.78620 -1.93857 1521 ft 2 kts 139°
2026-05-07 01:17 34.78600 -1.93841 1524 ft 6 kts 147°
2026-05-07 01:17 34.78535 -1.93804 1522 ft 15 kts 149°
2026-05-07 01:18 34.78446 -1.93692 1527 ft 18 kts 130°
2026-05-07 01:18 34.78416 -1.93614 1526 ft 8 kts 68°
2026-05-07 01:18 34.78463 -1.93555 1526 ft 11 kts 43°
2026-05-07 01:18 34.78531 -1.93480 1525 ft 15 kts 40°
2026-05-07 01:19 34.78632 -1.93374 1524 ft 23 kts 41°
2026-05-07 01:19 34.78779 -1.93220 1524 ft 32 kts 40°
2026-05-07 01:19 34.78970 -1.93022 1528 ft 39 kts 42°
2026-05-07 01:19 34.79169 -1.92804 1529 ft 29 kts 47°
2026-05-07 01:20 34.79228 -1.92747 1531 ft 8 kts 317°
2026-05-07 01:20 34.79283 -1.92829 1522 ft 26 kts 308°
2026-05-07 01:20 34.79574 -1.93238 1526 ft 99 kts 311°
2026-05-07 01:20 34.80170 -1.94067 1511 ft 158 kts 311°
2026-05-07 01:21 34.80965 -1.95161 1896 ft 178 kts 310°
2026-05-07 01:21 34.81770 -1.96348 2659 ft 185 kts 310°
2026-05-07 01:21 34.82618 -1.97607 3251 ft 204 kts 304°
2026-05-07 01:21 34.83077 -1.99290 3758 ft 224 kts 268°
2026-05-07 01:22 34.82531 -2.01150 4268 ft 244 kts 238°
2026-05-07 01:22 34.81542 -2.02887 4981 ft 256 kts 234°
2026-05-07 01:22 34.80449 -2.04693 5571 ft 273 kts 234°
2026-05-07 01:22 34.79335 -2.06565 6522 ft 271 kts 235°
2026-05-07 01:23 34.78267 -2.08471 7429 ft 272 kts 236°
2026-05-07 01:23 34.77224 -2.10395 8317 ft 275 kts 237°
2026-05-07 01:23 34.76177 -2.12346 9227 ft 276 kts 237°
2026-05-07 01:23 34.75120 -2.14321 9964 ft 284 kts 239°
2026-05-07 01:24 34.74235 -2.16544 10414 ft 299 kts 248°
2026-05-07 01:24 34.73493 -2.18951 11061 ft 307 kts 250°
2026-05-07 01:24 34.72775 -2.21385 11982 ft 306 kts 250°
2026-05-07 01:24 34.72032 -2.23839 12729 ft 315 kts 249°
2026-05-07 01:25 34.71237 -2.26338 13505 ft 318 kts 248°
2026-05-07 01:25 34.70429 -2.28812 14527 ft 311 kts 247°
2026-05-07 01:25 34.69631 -2.31251 15430 ft 312 kts 247°
2026-05-07 01:25 34.68820 -2.33725 16160 ft 317 kts 247°
2026-05-07 01:26 34.68000 -2.36226 16955 ft 320 kts 246°
2026-05-07 01:26 34.67172 -2.38751 17708 ft 323 kts 246°
2026-05-07 01:26 34.66335 -2.41299 18417 ft 326 kts 246°
2026-05-07 01:26 34.65489 -2.43873 19024 ft 330 kts 246°
2026-05-07 01:27 34.64633 -2.46476 19630 ft 333 kts 246°
2026-05-07 01:27 34.63768 -2.49100 20231 ft 336 kts 246°
2026-05-07 01:27 34.62893 -2.51756 20815 ft 340 kts 246°
2026-05-07 01:27 34.62010 -2.54435 21410 ft 343 kts 246°
2026-05-07 01:28 34.61117 -2.57141 22004 ft 347 kts 245°
2026-05-07 01:28 34.60232 -2.59880 22579 ft 351 kts 248°
2026-05-07 01:28 34.59466 -2.62711 23175 ft 355 kts 249°
2026-05-07 01:28 34.58685 -2.65561 23717 ft 358 kts 248°
2026-05-07 01:29 34.57901 -2.68395 24257 ft 359 kts 248°
2026-05-07 01:29 34.57102 -2.71272 24853 ft 360 kts 248°
2026-05-07 01:29 34.56299 -2.74155 25448 ft 361 kts 249°
2026-05-07 01:29 34.55515 -2.77056 26008 ft 363 kts 249°
2026-05-07 01:30 34.54729 -2.79970 26559 ft 364 kts 249°
2026-05-07 01:30 34.53939 -2.82891 27108 ft 365 kts 249°
2026-05-07 01:30 34.53146 -2.85823 27631 ft 367 kts 249°
2026-05-07 01:30 34.52347 -2.88770 28156 ft 369 kts 249°
2026-05-07 01:31 34.51544 -2.91729 28657 ft 370 kts 249°
2026-05-07 01:31 34.50735 -2.94705 29148 ft 372 kts 249°
2026-05-07 01:31 34.49922 -2.97693 29638 ft 374 kts 249°
2026-05-07 01:31 34.49105 -3.00692 30112 ft 376 kts 248°
2026-05-07 01:32 34.48284 -3.03703 30524 ft 376 kts 248°
2026-05-07 01:32 34.47462 -3.06715 30988 ft 377 kts 248°
2026-05-07 01:32 34.47246 -3.07506 31079 ft 378 kts 248°
2026-05-07 01:33 34.46930 -3.08661 31188 ft 380 kts 248°
2026-05-07 01:33 34.46096 -3.11713 31536 ft 382 kts 248°
2026-05-07 01:33 34.45261 -3.14760 31996 ft 381 kts 248°
2026-05-07 01:33 34.44427 -3.17804 32518 ft 379 kts 247°
2026-05-07 01:34 34.43602 -3.20813 33157 ft 374 kts 247°
2026-05-07 01:34 34.42791 -3.23772 33873 ft 365 kts 246°
2026-05-07 01:34 34.41997 -3.26660 34554 ft 357 kts 246°
2026-05-07 01:34 34.41215 -3.29500 35074 ft 354 kts 246°
2026-05-07 01:35 34.40437 -3.32325 35439 ft 354 kts 246°
2026-05-07 01:35 34.39920 -3.34199 35653 ft 354 kts 246°
2026-05-07 01:35 34.38875 -3.37984 36100 ft 355 kts 246°
2026-05-07 01:35 34.38357 -3.39861 36315 ft 355 kts 246°
2026-05-07 01:36 34.37573 -3.42696 36625 ft 355 kts 246°
2026-05-07 01:36 34.36530 -3.46470 36914 ft 360 kts 247°
2026-05-07 01:36 34.35746 -3.49373 37039 ft 364 kts 247°
2026-05-07 01:36 34.34960 -3.52284 37375 ft 364 kts 247°
2026-05-07 01:37 34.34427 -3.54253 37561 ft 364 kts 247°
2026-05-07 01:37 34.33638 -3.57166 37844 ft 365 kts 247°
2026-05-07 01:37 34.32845 -3.60093 37932 ft 366 kts 247°
2026-05-07 01:38 34.31266 -3.65909 37920 ft 363 kts 247°
2026-05-07 01:38 34.29687 -3.71709 37931 ft 363 kts 247°
2026-05-07 01:39 34.28115 -3.77474 37931 ft 363 kts 247°
2026-05-07 01:39 34.26530 -3.83275 37948 ft 365 kts 248°
2026-05-07 01:40 34.24914 -3.89175 37934 ft 374 kts 248°
2026-05-07 01:40 34.23278 -3.95136 37938 ft 374 kts 248°
2026-05-07 01:41 34.21639 -4.01096 37928 ft 374 kts 248°
2026-05-07 01:41 34.19998 -4.07048 37939 ft 373 kts 247°
2026-05-07 01:42 34.18353 -4.13006 37946 ft 374 kts 247°
2026-05-07 01:42 34.16679 -4.18950 37943 ft 373 kts 247°
2026-05-07 01:43 34.14982 -4.24875 37929 ft 373 kts 247°
2026-05-07 01:43 34.13288 -4.30790 37944 ft 371 kts 246°
2026-05-07 01:44 34.11606 -4.36638 37944 ft 368 kts 246°
2026-05-07 01:44 34.09924 -4.42469 37941 ft 368 kts 246°
2026-05-07 01:45 34.08247 -4.48271 37950 ft 369 kts 246°
2026-05-07 01:45 34.06554 -4.54116 37948 ft 369 kts 246°
2026-05-07 01:46 34.04858 -4.59960 37941 ft 371 kts 247°
2026-05-07 01:46 34.03131 -4.65895 37946 ft 379 kts 247°
2026-05-07 01:47 34.01377 -4.71913 37951 ft 381 kts 247°
2026-05-07 01:47 33.99619 -4.77933 37962 ft 380 kts 247°
2026-05-07 01:48 33.97860 -4.83941 37961 ft 380 kts 247°
2026-05-07 01:48 33.96097 -4.89952 37951 ft 381 kts 247°
2026-05-07 01:49 33.94332 -4.95959 37994 ft 381 kts 247°
2026-05-07 01:49 33.92649 -5.02062 37952 ft 389 kts 255°
2026-05-07 01:50 33.91744 -5.08493 37951 ft 390 kts 255°
2026-05-07 01:50 33.90823 -5.14925 37961 ft 390 kts 256°
2026-05-07 01:51 33.89905 -5.21365 37958 ft 390 kts 256°
2026-05-07 01:51 33.88985 -5.27805 37964 ft 391 kts 256°
2026-05-07 01:52 33.88067 -5.34203 37984 ft 391 kts 256°
2026-05-07 01:52 33.87130 -5.40710 37970 ft 396 kts 256°
2026-05-07 01:53 33.86185 -5.47249 37967 ft 396 kts 256°
2026-05-07 01:53 33.85236 -5.53790 37968 ft 396 kts 256°
2026-05-07 01:54 33.84285 -5.60317 37961 ft 396 kts 256°
2026-05-07 01:54 33.83330 -5.66846 37953 ft 397 kts 256°
2026-05-07 01:55 33.82372 -5.73381 37954 ft 398 kts 256°
2026-05-07 01:55 33.81398 -5.79976 37941 ft 401 kts 256°
2026-05-07 01:56 33.80421 -5.86576 37953 ft 401 kts 256°
2026-05-07 01:56 33.79439 -5.93183 37948 ft 401 kts 256°
2026-05-07 01:57 33.78462 -5.99730 37953 ft 401 kts 256°
2026-05-07 01:57 33.77476 -6.06319 37952 ft 401 kts 256°
2026-05-07 01:58 33.76483 -6.12923 37947 ft 403 kts 257°
2026-05-07 01:58 33.75479 -6.19579 37950 ft 405 kts 257°
2026-05-07 01:59 33.74472 -6.26226 37953 ft 405 kts 257°
2026-05-07 01:59 33.73464 -6.32876 37954 ft 405 kts 257°
2026-05-07 02:00 33.72465 -6.39530 37953 ft 404 kts 257°
2026-05-07 02:00 33.71465 -6.46175 37957 ft 404 kts 257°
2026-05-07 02:01 33.70459 -6.52825 37961 ft 406 kts 258°
2026-05-07 02:01 33.69433 -6.59487 37955 ft 406 kts 257°
2026-05-07 02:02 33.68390 -6.66142 37961 ft 406 kts 257°
2026-05-07 02:02 33.67344 -6.72798 37961 ft 405 kts 257°
2026-05-07 02:03 33.66294 -6.79454 37959 ft 406 kts 257°
2026-05-07 02:03 33.65206 -6.86102 37957 ft 405 kts 253°
2026-05-07 02:03 33.64074 -6.89171 37932 ft 403 kts 238°
2026-05-07 02:04 33.62290 -6.91778 37969 ft 407 kts 230°
2026-05-07 02:04 33.58335 -6.96679 37966 ft 410 kts 228°
2026-05-07 02:05 33.54271 -7.01475 37970 ft 410 kts 227°
2026-05-07 02:05 33.50205 -7.06197 37965 ft 410 kts 227°
2026-05-07 02:06 33.46105 -7.10938 37948 ft 410 kts 227°
2026-05-07 02:06 33.42000 -7.15679 37964 ft 410 kts 227°
2026-05-07 02:07 33.37891 -7.20416 37969 ft 410 kts 227°
2026-05-07 02:07 33.31706 -7.27535 37866 ft 414 kts 227°
2026-05-07 02:08 33.29633 -7.29917 37630 ft 413 kts 227°
2026-05-07 02:08 33.27565 -7.32292 37386 ft 413 kts 227°
2026-05-07 02:08 33.25494 -7.34669 37143 ft 413 kts 227°
2026-05-07 02:08 33.23439 -7.37026 36718 ft 406 kts 227°
2026-05-07 02:09 33.21396 -7.39368 35988 ft 408 kts 227°
2026-05-07 02:09 33.19344 -7.41717 35281 ft 409 kts 227°
2026-05-07 02:09 33.17295 -7.44063 34714 ft 407 kts 227°
2026-05-07 02:09 33.15259 -7.46393 34229 ft 404 kts 227°
2026-05-07 02:10 33.13232 -7.48711 33668 ft 402 kts 227°
2026-05-07 02:10 33.11126 -7.50896 33024 ft 404 kts 217°
2026-05-07 02:10 33.08702 -7.52595 32453 ft 403 kts 214°
2026-05-07 02:10 33.06311 -7.54303 31988 ft 398 kts 214°
2026-05-07 02:11 33.03978 -7.55959 31520 ft 394 kts 214°
2026-05-07 02:11 33.01596 -7.57641 31009 ft 391 kts 214°
2026-05-07 02:11 32.99297 -7.59261 30512 ft 388 kts 214°
2026-05-07 02:11 32.96976 -7.60896 29996 ft 386 kts 214°
2026-05-07 02:12 32.94670 -7.62517 29428 ft 384 kts 214°
2026-05-07 02:12 32.92380 -7.64126 28907 ft 380 kts 214°
2026-05-07 02:12 32.90112 -7.65719 28449 ft 376 kts 214°
2026-05-07 02:12 32.87868 -7.67294 27993 ft 373 kts 214°
2026-05-07 02:13 32.85647 -7.68852 27543 ft 369 kts 214°
2026-05-07 02:13 32.83437 -7.70403 27036 ft 368 kts 214°
2026-05-07 02:13 32.81242 -7.71941 26621 ft 364 kts 214°
2026-05-07 02:13 32.79072 -7.73462 26226 ft 361 kts 214°
2026-05-07 02:14 32.76912 -7.74974 25812 ft 358 kts 214°
2026-05-07 02:14 32.74775 -7.76469 25407 ft 356 kts 214°
2026-05-07 02:14 32.72650 -7.77956 24994 ft 353 kts 214°
2026-05-07 02:14 32.70539 -7.79432 24597 ft 351 kts 214°
2026-05-07 02:15 32.68440 -7.80898 24214 ft 349 kts 214°
2026-05-07 02:15 32.66346 -7.82359 23774 ft 349 kts 214°
2026-05-07 02:15 32.64258 -7.83816 23367 ft 347 kts 214°
2026-05-07 02:15 32.62187 -7.85259 22962 ft 343 kts 214°
2026-05-07 02:16 32.60138 -7.86686 22586 ft 339 kts 214°
2026-05-07 02:16 32.58115 -7.88095 22206 ft 336 kts 214°
2026-05-07 02:16 32.56113 -7.89489 21856 ft 332 kts 214°
2026-05-07 02:16 32.54131 -7.90867 21494 ft 329 kts 214°
2026-05-07 02:17 32.52169 -7.92231 21132 ft 325 kts 214°
2026-05-07 02:17 32.50225 -7.93582 20783 ft 322 kts 214°
2026-05-07 02:17 32.48323 -7.94903 20437 ft 320 kts 214°
2026-05-07 02:17 32.46415 -7.96227 20089 ft 317 kts 214°
2026-05-07 02:18 32.44518 -7.97543 19754 ft 314 kts 214°
2026-05-07 02:18 32.42639 -7.98846 19413 ft 312 kts 214°
2026-05-07 02:18 32.40774 -8.00139 19068 ft 310 kts 214°
2026-05-07 02:18 32.38903 -8.01436 18729 ft 314 kts 214°
2026-05-07 02:19 32.37008 -8.02748 18379 ft 318 kts 214°
2026-05-07 02:19 32.35098 -8.04069 17991 ft 318 kts 214°
2026-05-07 02:19 32.33192 -8.05388 17623 ft 316 kts 214°
2026-05-07 02:19 32.31304 -8.06694 17271 ft 313 kts 214°
2026-05-07 02:20 32.29437 -8.07984 16931 ft 309 kts 214°
2026-05-07 02:20 32.27589 -8.09261 16584 ft 306 kts 214°
2026-05-07 02:20 32.25764 -8.10521 16262 ft 303 kts 214°
2026-05-07 02:20 32.23957 -8.11768 15929 ft 299 kts 214°
2026-05-07 02:21 32.22168 -8.13002 15607 ft 296 kts 214°
2026-05-07 02:21 32.20392 -8.14227 15281 ft 294 kts 214°
2026-05-07 02:21 32.18637 -8.15436 14958 ft 291 kts 214°
2026-05-07 02:21 32.16899 -8.16634 14646 ft 288 kts 214°
2026-05-07 02:22 32.15174 -8.17822 14322 ft 286 kts 214°
2026-05-07 02:22 32.13312 -8.18729 13961 ft 297 kts 195°
2026-05-07 02:22 32.11217 -8.18700 13602 ft 309 kts 172°
2026-05-07 02:22 32.09194 -8.17748 13278 ft 316 kts 157°
2026-05-07 02:23 32.07231 -8.16577 12940 ft 316 kts 158°
2026-05-07 02:23 32.05269 -8.15409 12604 ft 314 kts 158°
2026-05-07 02:23 32.03331 -8.14251 12274 ft 311 kts 157°
2026-05-07 02:23 32.01412 -8.13102 11947 ft 308 kts 157°
2026-05-07 02:24 32.00153 -8.12349 11724 ft 306 kts 157°
2026-05-07 02:24 31.98262 -8.11217 11410 ft 303 kts 157°
2026-05-07 02:24 31.96394 -8.10099 11091 ft 300 kts 157°
2026-05-07 02:24 31.94540 -8.08991 10775 ft 297 kts 157°
2026-05-07 02:25 31.92704 -8.07893 10465 ft 295 kts 157°
2026-05-07 02:25 31.90891 -8.06809 10238 ft 289 kts 157°
2026-05-07 02:25 31.89125 -8.05755 10102 ft 280 kts 157°
2026-05-07 02:25 31.87410 -8.04731 9907 ft 274 kts 157°
2026-05-07 02:26 31.85714 -8.03718 9596 ft 273 kts 157°
2026-05-07 02:26 31.84028 -8.02712 9264 ft 271 kts 156°
2026-05-07 02:26 31.82350 -8.01711 8962 ft 269 kts 156°
2026-05-07 02:26 31.80708 -8.00678 8650 ft 268 kts 148°
2026-05-07 02:27 31.79423 -7.99128 8330 ft 270 kts 130°
2026-05-07 02:27 31.78278 -7.97403 8064 ft 266 kts 130°
2026-05-07 02:27 31.77145 -7.95692 7796 ft 266 kts 130°
2026-05-07 02:27 31.76001 -7.93953 7519 ft 271 kts 129°
2026-05-07 02:28 31.74845 -7.92190 7244 ft 273 kts 129°
2026-05-07 02:28 31.73689 -7.90426 6950 ft 272 kts 129°
2026-05-07 02:28 31.72544 -7.88676 6657 ft 269 kts 129°
2026-05-07 02:28 31.71407 -7.86939 6364 ft 267 kts 129°
2026-05-07 02:29 31.70283 -7.85222 6070 ft 263 kts 129°
2026-05-07 02:29 31.69172 -7.83525 5794 ft 260 kts 129°
2026-05-07 02:29 31.68084 -7.81866 5653 ft 253 kts 129°
2026-05-07 02:29 31.67030 -7.80263 5560 ft 242 kts 130°
2026-05-07 02:30 31.65773 -7.79050 5450 ft 229 kts 156°
2026-05-07 02:30 31.64279 -7.78635 5346 ft 216 kts 180°
2026-05-07 02:30 31.62845 -7.78966 5164 ft 207 kts 203°
2026-05-07 02:30 31.61661 -7.79852 5017 ft 197 kts 219°
2026-05-07 02:31 31.60565 -7.80715 4873 ft 184 kts 204°
2026-05-07 02:31 31.59463 -7.81411 4736 ft 179 kts 224°
2026-05-07 02:31 31.58861 -7.82665 4594 ft 179 kts 257°
2026-05-07 02:31 31.58902 -7.84120 4427 ft 181 kts 282°
2026-05-07 02:32 31.59126 -7.85575 4193 ft 181 kts 275°
2026-05-07 02:32 31.59246 -7.87042 3942 ft 180 kts 275°
2026-05-07 02:32 31.59367 -7.88502 3737 ft 180 kts 276°
2026-05-07 02:32 31.59488 -7.89961 3580 ft 179 kts 276°
2026-05-07 02:33 31.59609 -7.91413 3383 ft 178 kts 277°
2026-05-07 02:33 31.59731 -7.92793 3050 ft 163 kts 277°
2026-05-07 02:33 31.59847 -7.94049 2777 ft 148 kts 278°
2026-05-07 02:33 31.59963 -7.95215 2477 ft 140 kts 278°
2026-05-07 02:34 31.60059 -7.96338 2282 ft 140 kts 277°
2026-05-07 02:34 31.60175 -7.97493 2215 ft 145 kts 277°
2026-05-07 02:34 31.60280 -7.98689 2146 ft 149 kts 275°
2026-05-07 02:34 31.60374 -7.99907 1937 ft 151 kts 274°
2026-05-07 02:35 31.60461 -8.01110 1742 ft 150 kts 275°
2026-05-07 02:35 31.60572 -8.02309 1557 ft 143 kts 275°
2026-05-07 02:35 31.60660 -8.03301 1539 ft 90 kts 276°
2026-05-07 02:35 31.60716 -8.03945 1528 ft 77 kts 275°
2026-05-07 02:36 31.60748 -8.04368 1528 ft 11 kts 256°
2026-05-07 02:36 31.60677 -8.04393 1528 ft 12 kts 181°
2026-05-07 02:36 31.60666 -8.04393 1528 ft 13 kts 181°